www.pogodaiklimat.ru

Погода и климат >> Архив погоды >> Россия >> Курганская область >> Памятное


ПОГОДА в Памятном

  • Прогноз погоды в Памятном
  • Монитор погоды в Памятном

АРХИВ ПОГОДЫ в Памятном

Время (UTC), дата Ветер
(напр.,м/с)
 
Видим.   Явления Облачность Т
(С)
Тd
(С)
f
(%)
Тe
(С)
Тes
(С)
Комфортность P
(гПа)
Po
(гПа)
Тmin
(С)
Tmax
(С)
R
(мм)
R24
(мм)
S
(см)
09 9.07 З 4 50 км 8/8 600 м
[Cb cap]
+22.1 +13.0 56 +25 +27 комфорт 1006.8 999.0
12 9.07 СЗ 3 50 км 8/8 600 м
[Cu hum]
+22.6 +12.8 54 +25 +27 комфорт 1009.2 1001.3
15 9.07 СЗ 1 50 км 5/3 600 м
[Cu hum Ci fib]
+22.1 +14.5 62 +25 +26 комфорт 1008.7 1000.9 +23.3
18 9.07 ЮЗ 2 20 км 4/0
[Ac trans Ci fib]
+14.9 +13.3 90 +15 +15 1010.8 1002.7
21 9.07 Ю 2 4000 м дымка 8/0
[Ac trans Ci fib]
+10.4 +10.3 99 +9 +9 1010.5 1002.3
00 10.07 Ю 3 4000 м дымка 6/0
[Ci fib]
+10.6 +10.5 99 +8 +9 1010.9 1002.7
03 10.07 Ю 3 10 км 6/0
[Ci fib]
+18.4 +14.5 78 +19 +23 1011.1 1003.2 +10.0
06 10.07 Ю 6 50 км 8/3 1000 м
[Cu hum Ci fib]
+24.0 +12.9 50 +26 +28 жарко 1011.8 1004.0
09 10.07 Ю 6
{11}
50 км 8/0
[Ac As Cc]
+25.8 +12.2 43 +27 +31 жарко 1009.5 1001.8
12 10.07 ЮВ 4
{10}
50 км 10/3 600 м
[Sc Ac As Cs]
+24.3 +14.9 56 +27 +28 жарко 1008.1 1000.4
15 10.07 ЮВ 4 50 км 10/3 600 м
[Sc Ac lent Ci]
+23.2 +13.6 55 +27 +27 душно 1008.0 1000.2 +27.1
18 10.07 ЮВ 2 20 км 10/6 600 м
[Sc Ac As]
+19.1 +14.4 74 +21 +21 комфорт 1009.2 1001.3
21 10.07 ЮВ 4 20 км 10/5 600 м
[Sc Ac lent Ci fib]
+20.9 +12.7 59 +23 +23 комфорт 1006.7 998.9
00 11.07 ЮВ 4 50 км 10 баллов +19.5 +13.4 68 +21 +21 комфорт 1007.9 1000.0
03 11.07 Ю 2 50 км в посл. час ливневой дождь 10/6 600 м
[Cb cap Ac As]
+20.2 +14.4 69 +23 +24 комфорт 1007.6 999.8 +18.6
06 11.07 Ю 3 50 км {ливн. осадки} 10/10 600 м
[Cb cap]
+21.7 +16.0 70 +25 +25 комфорт 1009.2 1001.3
09 11.07 ЮЗ 2
{10}
50 км {ливн. осадки} 9/8 600 м
[Sc Ac As]
+22.0 +16.0 69 +26 +28 душно 1008.0 1000.2
12 11.07 ЮЗ 2 50 км {ливн. осадки} 8/6 600 м
[Cu Sc Ac As]
+25.0 +16.6 60 +29 +30 душно 1007.9 1000.2
15 11.07 В 2 50 км 8/3 600 м
[Sc Ci fib]
+24.4 +19.3 73 +29 +30 душно 1008.5 1000.8 +26.3
18 11.07 СВ 1 500 м туман 3/0
[Ci fib]
+16.8 +16.3 97 +18 +18 1009.8 1001.9
21 11.07 СЗ 2 4000 м дымка {туман} 4/0
[Ci fib]
+14.1 +14.0 99 +13 +13 1010.4 1002.4
00 12.07 С 1 500 м туман 4/0
[Ci fib]
+13.5 +13.4 99 +14 +14 1011.1 1003.0
03 12.07 СВ 1 20 км {туман} 9/0
[Ci fib]
+22.7 +19.6 83 +29 +34 очень
душно
1011.4 1003.6 +12.9
06 12.07 ЮВ 2 20 км {туман} 10/0
[Ci]
+29.1 +20.3 59 +36 +36 очень
душно
1013.0 1005.3
09 12.07 ЮЗ 2 50 км 8/4 600 м
[Cu hum Ci fib]
+31.9 +15.9 38 +35 +42 очень
душно
1011.8 1004.2
12 12.07 СЗ 1 50 км 8/3 600 м
[Cu hum Cs]
+31.4 +18.4 46 +36 +38 очень
душно
1012.9 1005.3
15 12.07 С 2 20 км 9/0
[Ac trans Ci]
+27.8 +20.8 66 +35 +35 очень
душно
1012.4 1004.7 +33.2
18 12.07 СВ 1 20 км 9/0
[Ac trans Ci]
+21.4 +19.1 87 +26 +26 душно 1014.6 1006.7
21 12.07 С 1 10 км 5/0
[Ac trans Ci fib]
+18.3 +17.7 96 +20 +20 1013.5 1005.5
00 13.07 СВ 2 4000 м дымка 4/0
[Ac trans Ci fib]
+17.3 +16.7 96 +18 +18 1013.7 1005.8
03 13.07 ЮВ 3 50 км 3/0
[Ci fib]
+24.1 +17.4 66 +28 +32 душно 1013.8 1006.0 +16.2
06 13.07 ЮВ 4 50 км 8/0
[Ci fib]
+30.2 +16.9 45 +34 +37 очень
душно
1014.4 1006.7
09 13.07 ЮВ 5 50 км 8/0
[Ci fib]
+32.1 +14.2 34 +34 +40 душно 1013.0 1005.5
12 13.07 В 5 50 км 6/0
[Ci fib]
+30.8 +16.1 41 +34 +36 очень
душно
1012.6 1005.0
15 13.07 ЮВ 3 50 км 3/0
[Ci fib]
+25.7 +15.6 54 +29 +29 душно 1013.0 1005.2 +32.1
18 13.07 В 3 20 км 2 балла +18.3 +13.6 74 +19 +19 1014.7 1006.7
21 13.07 В 1 20 км 4/0
[Ci fib]
+16.6 +14.7 89 +17 +17 1013.6 1005.6
00 14.07 В 3 10 км 2 балла +14.5 +13.9 96 +13 +14 1014.8 1006.7
03 14.07 ЮВ 3 20 км ясно +23.5 +17.7 70 +28 +32 душно 1013.2 1005.4 +13.8
06 14.07 ЮВ 5 50 км 1 балл +28.5 +16.7 49 +32 +39 душно 1014.4 1006.7
09 14.07 ЮВ 5 50 км 3/0
[Ci fib]
+29.8 +16.0 43 +33 +40 душно 1012.0 1004.4
12 14.07 ЮВ 5 50 км 2 балла +29.7 +16.1 44 +33 +35 душно 1013.0 1005.3
15 14.07 В 3 50 км 4/0
[Ci fib]
+25.4 +17.4 61 +29 +30 душно 1011.3 1003.5 +30.1
18 14.07 В 2 20 км 6 баллов +18.4 +15.5 83 +19 +19 1012.0 1004.0
21 14.07 штиль 0 10 км 8/0
[Ci fib]
+15.0 +14.2 95 +15 +15 1010.4 1002.4
00 15.07 С 1 20 км 10 баллов +15.1 +14.6 97 +16 +16 1010.8 1002.7
03 15.07 В 2 20 км 10/0
[Ac As Cs]
+23.0 +18.2 74 +29 +32 очень
душно
1009.4 1001.7 +14.5
06 15.07 ЮВ 4 10 км 7 баллов +28.6 +18.7 55 +34 +36 очень
душно
1009.0 1001.3
09 15.07 ЮВ 7-11
{11}
20 км 8/3 600 м
[Sc Ac trans Cc]
+32.0 +16.0 38 +35 +36 очень
душно
1006.9 999.4
12 15.07 ЮВ 5
{12}
50 км 8/3 600 м
[Sc Ac As Ci]
+30.0 +17.9 48 +34 +36 очень
душно
1005.7 998.1
15 15.07 В 6-10
{10}
20 км 8/0
[Ac lent Ci fib]
+27.8 +18.3 56 +33 +33 очень
душно
1004.2 996.6 +32.2
18 15.07 В 6
{11}
20 км 8/3 600 м
[Sc Ac lent Ci fib]
+24.7 +15.7 57 +28 +28 душно 1003.1 995.4
21 15.07 ЮВ 5
{11}
20 км 8/4 600 м
[Sc Ac trans Ci fib]
+22.8 +15.0 61 +27 +27 душно 1001.7 994.0
00 16.07 ЮВ 4 20 км 7 баллов +20.8 +14.9 69 +24 +24 комфорт 1001.1 993.3
03 16.07 Ю 4 10 км 8/3 600 м
[Cu hum Ac trans]
+23.6 +17.0 66 +27 +29 жарко 1001.6 993.9 +20.8

 

Местоположение метеостанции Памятное (Курганская область, Россия): широта 56.02 долгота 65.70 высота над уровнем моря 68 м.

В архиве по умолчанию представлена погода в Памятном за последнюю неделю. Архивные данные за месяц целиком и за предыдущие месяцы, начиная с января 2011 года, Вы можете получить, выбрав интересующий диапазон дат из раскрывающегося списка и нажав кнопку "Ввод!".


*Определитесь, кто Вы:
робот инопланетянин человек

Внимание! Время в таблицах - всемирное. Для получения местного времени необходимо прибавить поправку, которая равна 5 ч.

Смотрите также архив погоды в соседних городах и на ближайших метеорологических станциях:

Погода в Исетском (Тюменская область, Россия) (55 км)
Погода в Кургане (Курганская область, Россия) (66 км)
Погода в Ялуторовске (Тюменская область, Россия) (84 км)
Погода в Шатрово (Курганская область, Россия) (85 км)
Погода в Тюмени (Тюменская область, Россия) (123 км)
Погода в Шадринске (Курганская область, Россия) (127 км)
Погода в Макушино (Курганская область, Россия) (132 км)
Погода в Тугулыме (Свердловская область, Россия) (133 км)
Погода в Половинном (Курганская область, Россия) (140 км)
Погода в Бутке (Свердловская область, Россия) (142 км)

Пояснения к столбцам:

Ветер - указаны скорость ветра в м/с - средняя за 10 мин, порывы в срок и между сроками (в фигурных скобках) и направление, откуда дует ветер: С - северный, СВ - северо-восточный, В - восточный, ЮВ - юго-восточный, Ю - южный, ЮЗ - юго-западный, З - западный, СЗ - северо-западный.
Видимость - горизонтальная дальность видимости в метрах или километрах. При видимости от 1 до 10 км при отсутствии осадков обычно наблюдается дымка, при ухудшении видимости до 1 км и менее - туман. В сухую погоду видимость может ухудшаться дымом, пылью или мглою.
Явления - указаны атмосферные явления, наблюдавшиеся в срок или в последний час перед сроком; фигурными скобками обозначены явления, наблюдавшиеся между сроками (за 1-3 часа до срока); квадратными скобками обозначены град или гололедные отложения с указанием их диаметра в мм.
Облачность - указаны через наклонную черту общая и нижняя облачность в баллах и высота нижней границы облаков в метрах; квадратными скобками обозначены формы облаков: Ci - перистые, Cs - перисто-слоистые, Cc - перисто-кучевые, Ac - высококучевые, As - высокослоистые, Sc - слоисто-кучевые, Ns - слоисто-дождевые, Cu - кучевые, Cb - кучево-дождевые. Подробнее классификацию облаков см. в Атласе облаков (PDF).
T - Температура воздуха - температура, измеренная на высоте 2 м над землей.
Td - Температура точки росы - температура, при понижении до которой содержащийся в воздухе водяной пар достигнет насыщения.
f - Относительная влажность воздуха - влажноcть воздуха, измеренная на высоте 2 м над землей.
Te - Эффективная температура - температура, которую ощущает одетый по сезону человек в тени. Характеристика душности погоды. При расчете учитывается влияние влажности воздуха и скорости ветра на теплоощущения человека.
Tes - Эффективная температура на солнце - температура, которую ощущает человек, с поправкой на солнечный нагрев. Характеристика знойности погоды. Зависит от высоты солнца над горизонтом, облачности и скорости ветра. Ночью, в пасмурную погоду, а также при ветре 12 м/с и более поправка равна нулю.
P - Атмосферное давление - приведенное к уровню моря атмосферное давление.
Po - Атмосферное давление - измеренное на уровне метеостанции атмосферное давление.
Tmin - Минимальная температура - минимум температуры воздуха на высоте 2 м над землей.
Tmax - Максимальная температура - максимум температуры воздуха на высоте 2 м над землей.
R - Количество осадков - Количество выпавших осадков за период времени, мм. При наведении курсора мыши на число - период времени, за который выпало указанное количество осадков.
R24 - Количество осадков - Количество выпавших осадков за 24 часа, мм.
S - Снежный покров - Высота снежного покрова, см. При наведении курсора мыши на число - состояние снежного покрова и степень покрытия местности в баллах.